Quarter,Year,Quarter reference date,RPI index numbers,RPI annual percentage change,RPIX index numbers,RPIX annual percentage change
Mar,1989,15/03/1989,58.3,7.9,,
Jun,1989,15/06/1989,59.8,8.5,,
Sep,1989,15/09/1989,60.4,7.8,,
Dec,1989,15/12/1989,61.4,8.3,,
Mar,1990,15/03/1990,63.3,8.7,,
Jun,1990,15/06/1990,65.4,9.4,,
Sep,1990,15/09/1990,66.8,10.6,,
Dec,1990,15/12/1990,67.2,9.4,,
Mar,1991,15/03/1991,69.1,9.1,,
Jun,1991,15/06/1991,70.6,8,,
Sep,1991,15/09/1991,72.1,8,,
Dec,1991,15/12/1991,72.3,7.7,,
Mar,1992,15/03/1992,73.8,6.8,,
Jun,1992,15/06/1992,75,6.2,,
Sep,1992,15/09/1992,76.1,5.5,,
Dec,1992,15/12/1992,76.3,5.5,,
Mar,1993,15/03/1993,77.6,5.1,,
Jun,1993,15/06/1993,78,4,,
Sep,1993,15/09/1993,78.3,2.9,,
Dec,1993,15/12/1993,78.8,3.2,,
Mar,1994,15/03/1994,79.8,3,,
Jun,1994,15/06/1994,80.1,2.6,,
Sep,1994,15/09/1994,80.5,2.8,,
Dec,1994,15/12/1994,80.9,2.7,,
Mar,1995,15/03/1995,82.3,3.1,,
Jun,1995,15/06/1995,82.9,3.5,,
Sep,1995,15/09/1995,83.4,3.6,,
Dec,1995,15/12/1995,84,3.7,,
Mar,1996,15/03/1996,84.7,2.8,,
Jun,1996,15/06/1996,85.5,3.2,,
Sep,1996,15/09/1996,86,3,,
Dec,1996,15/12/1996,87,3.6,,
Mar,1997,15/03/1997,87.8,3.7,,
Jun,1997,15/06/1997,88.5,3.5,,
Sep,1997,15/09/1997,89.6,4.3,,
Dec,1997,15/12/1997,90,3.5,,
Mar,1998,15/03/1998,91.6,4.3,,
Jun,1998,15/06/1998,92.7,4.7,,
Sep,1998,15/09/1998,93.5,4.3,,
Dec,1998,15/12/1998,93.6,4,,
Mar,1999,15/03/1999,94.7,3.4,,
Jun,1999,15/06/1999,95.7,3.3,,
Sep,1999,15/09/1999,96.7,3.4,,
Dec,1999,15/12/1999,97.7,4.4,,
Mar,2000,15/03/2000,99,4.6,99.2,4.3
Jun,2000,15/06/2000,100,4.4,100,4
Sep,2000,15/09/2000,101.1,4.6,101.1,4.2
Dec,2000,15/12/2000,101.6,4,101.4,3.4
Mar,2001,15/03/2001,103,4,102.8,3.6
Jun,2001,15/06/2001,103.9,3.9,103.8,3.8
Sep,2001,15/09/2001,105.3,4.2,105.3,4.2
Dec,2001,15/12/2001,104.7,3.1,105.1,3.6
Mar,2002,15/03/2002,107.1,4,107.3,4.4
Jun,2002,15/06/2002,108.3,4.2,108.4,4.4
Sep,2002,15/09/2002,109.7,4.2,109.7,4.2
Dec,2002,15/12/2002,109.8,4.9,109.8,4.5
Mar,2003,15/03/2003,112.4,4.9,112.5,4.8
Jun,2003,15/06/2003,112.9,4.2,113.4,4.6
Sep,2003,15/09/2003,113.9,3.8,114.5,4.4
Dec,2003,15/12/2003,114.2,4,114.2,4
Mar,2004,15/03/2004,116.6,3.7,116.4,3.5
Jun,2004,15/06/2004,118.3,4.8,117.3,3.4
Sep,2004,15/09/2004,120.3,5.6,118.3,3.3
Dec,2004,15/12/2004,120.3,5.3,118.1,3.4
Mar,2005,15/03/2005,121.9,4.5,119.6,2.7
Jun,2005,15/06/2005,122.6,3.6,120.2,2.5
Sep,2005,15/09/2005,122.7,2,120.6,1.9
Dec,2005,15/12/2005,123,2.2,120.7,2.2
Mar,2006,15/03/2006,124.8,2.4,122.5,2.4
Jun,2006,15/06/2006,126.2,2.9,123.9,3.1
Sep,2006,15/09/2006,127.1,3.6,124,2.8
Dec,2006,15/12/2006,127.5,3.7,123.7,2.5
Mar,2007,15/03/2007,130.3,4.4,125.9,2.8
Jun,2007,15/06/2007,131.6,4.3,126.7,2.3
Sep,2007,15/09/2007,132.1,3.9,126.7,2.2
Dec,2007,15/12/2007,133.3,4.5,127.7,3.2
Mar,2008,15/03/2008,134.5,3.2,129.5,2.9
Jun,2008,15/06/2008,139,5.6,134,5.8
Sep,2008,15/09/2008,140.5,6.4,135.2,6.7
Dec,2008,15/12/2008,137.7,3.3,134.3,5.2
Mar,2009,15/03/2009,137.3,2.1,136.2,5.2
Jun,2009,15/06/2009,138.5,-0.4,137.8,2.8
Sep,2009,15/09/2009,139.6,-0.6,138.8,2.7
Dec,2009,15/12/2009,140,1.7,139,3.5
Mar,2010,15/03/2010,141.7,3.2,140.7,3.3
Jun,2010,15/06/2010,142.4,2.8,141.4,2.6
Sep,2010,15/09/2010,142.6,2.1,141.4,1.9
Dec,2010,15/12/2010,143.2,2.3,141.9,2.1
Mar,2011,15/03/2011,146.1,3.1,144.8,2.9
Jun,2011,15/06/2011,148.8,4.5,147.6,4.4
Sep,2011,15/09/2011,150.3,5.4,149.2,5.5
Dec,2011,15/12/2011,150.4,5,149.2,5.1
Mar,2012,15/03/2012,153,4.7,151.9,4.9
Jun,2012,15/06/2012,153.3,3,152.3,3.2
Sep,2012,15/09/2012,154.5,2.8,153.5,2.9
Dec,2012,15/12/2012,153.5,2.1,152.5,2.2
Mar,2013,15/03/2013,155.2,1.4,154.3,1.6
Jun,2013,15/06/2013,155.6,1.5,154.8,1.6
Sep,2013,15/09/2013,156.4,1.2,155.6,1.4
Dec,2013,15/12/2013,156.4,1.9,155.7,2.1
Mar,2014,15/03/2014,157.9,1.7,157.3,1.9
Jun,2014,15/06/2014,158.1,1.6,157.6,1.8
Sep,2014,15/09/2014,159.3,1.9,158.9,2.1
Dec,2014,15/12/2014,158.5,1.3,158,1.5
Mar,2015,15/03/2015,158.9,0.6,158.4,0.7
Jun,2015,15/06/2015,159.6,0.9,159.2,1
Sep,2015,15/09/2015,159.5,0.1,159.1,0.1
Dec,2015,15/12/2015,160,0.9,159.6,1
Mar,2016,15/03/2016,161.2,1.4,160.8,1.5
Jun,2016,15/06/2016,162,1.5,161.6,1.5
Sep,2016,15/09/2016,162.7,2,162.3,2
Dec,2016,15/12/2016,163,1.9,162.7,1.9
Mar,2017,15/03/2017,165.9,2.9,165.8,3.1
Jun,2017,15/06/2017,166.1,2.5,166,2.7
Sep,2017,15/09/2017,167.8,3.1,167.8,3.4
Dec,2017,15/12/2017,168.8,3.6,168.4,3.5
Mar,2018,15/03/2018,171.2,3.2,170.7,3
Jun,2018,15/06/2018,173.5,4.5,173,4.2
Sep,2018,15/09/2018,175,4.3,174.2,3.8
Dec,2018,15/12/2018,175.4,3.9,174.6,3.7
Mar,2019,15/03/2019,177.3,3.6,176.4,3.3
Jun,2019,15/06/2019,178.4,2.8,177.5,2.6
Sep,2019,15/09/2019,179.7,2.7,178.7,2.6
Dec,2019,15/12/2019,179.8,2.5,178.7,2.3
Mar,2020,15/03/2020,182.1,2.7,181,2.6
Jun,2020,15/06/2020,179.3,0.5,178.9,0.8
Sep,2020,15/09/2020,181.4,0.9,181,1.3
Dec,2020,15/12/2020,181.4,0.9,180.9,1.2
Mar,2021,15/03/2021,183.6,0.8,183,1.1
Jun,2021,15/06/2021,185.5,3.5,184.8,3.3
Sep,2021,15/09/2021,186.7,2.9,185.9,2.7
Dec,2021,15/12/2021,188.3,3.8,187.3,3.5
Mar,2022,15/03/2022,194.6,6,192.6,5.2
Jun,2022,15/06/2022,200.1,7.9,196.8,6.5
Sep,2022,15/09/2022,206.2,10.4,200.8,8
Dec,2022,15/12/2022,212.2,12.7,203.4,8.6
Mar,2023,15/03/2023,219.3,12.7,208,8
Jun,2023,15/06/2023,221.9,10.9,208.8,6.1
Sep,2023,15/09/2023,227,10.1,211.7,5.4
Dec,2023,15/12/2023,228.1,7.5,212.9,4.7
